Location: Newark
(27.9675°N, 86.8869°E)
Time: 18:05:26
(UTC+00:00)

Vanguard 3 - Pass Details

Date: 26 October 2019
Orbit: 508 x 3263 km, 33.4° (Epoch: 18 November)

Event Time Altitude Azimuth Distance (km) Brightness Sun altitude
Rises 11:42:18 0° 205° (SSW) 6,121 12.2 -2.7°
Reaches altitude 10° 11:48:41 10° 190° (S) 4,521 11.3 -4.1°
Maximum altitude 11:55:33 18° 154° (SSE) 3,210 10.1 -5.6°
Drops below altitude 10° 12:00:38 10° 115° (ESE) 3,187 9.7 -6.7°
Enters shadow 12:02:26 - 103° (ESE) 3,440 9.8 -7.1°
Sets 12:03:59 0° 95° (E) 3,751 - -7.4°
